Погода в Элисте

Погода в Элисте : погода сейчас, прогноз погоды и архив. Всё, что Вы хотите узнать о погоде в Элисте!

Поиск расширенной информации на нашем сайте:

Другие новости

Новости СМИ2

Главная страница сайта

Новости сайта

02.10.2013

Напоминаем, что на нашем новом сайте вы можете получить высокодетализированные прогнозы погоды по пунктам России, СНГ и мира (включающие важные для авиации метеовеличины, такие как направление и скорость ветра, видимость, явления погоды, количество и форма облачности, нижняя и верхняя граница облачности), а также ознакомиться с разнообразными материалами по авиационной метеорологии и подборкой полезных ссылок на эту тему.

Сайт Метеоцентр.Азия посвящён разработке технологий оптимизации авиаметеорологического обслуживания, включая проектирование и перспективное создание нескольких автоматизированных авиаметеорологических систем:
- система выпуска высокодетальных прогностических карт явлений погоды для нижнего воздушного пространства по России и ближнему зарубежью;
- система верификации прогнозов TAF (выпускаемых синоптиками официальных АМСГ РФ и ближнего зарубежья) и AUTOTAF (выпускаемых сайтом Метеоцентр.Азия) - выявление ошибок, онлайн-сопоставление с фактической погодой METAR, автоматическое внесение коррективов в прогнозы при резком отклонении фактической погоды от прогноза, подсчёт оправдываемости прогнозов по элементам и в целом;
- система обработки, анализа и отображения авиаметеорологической информации для применения провайдерами метеорологической информации.


Погода в Элисте - сегодня

Время (UTC), дата Ветер
(°,м/с) 
Видим.   Явления Облачность Т
(°С)
Тd
(°С)
f(%) Тe
(°С)
Pmin
(гПа)
dP
(гПа)
Po
(мм)
O2
(г/м3)
Тmin Tmax R s Состояние
почвы
18 22.05.17 270 (З) 10 км    10/4 600 м средняя 
[Cu med, cong|Ac und]
+15.1 +9 67 +15  1009.1  1.2  740  281           
21 22.05.17 320 (СЗ) 10 км    10/6 600 м средняя 
[Cu med, cong|Ac As]
+14.2 +9.9 75 +15  1009.7  0.5  740  282           
00 23.05.17 020 (С) 10 км    10/3 600 м средняя 
[Cu med, cong|Ac As]
+12 +9.2 83 +11  1010.3  0.4  740  284           
03 23.05.17 010 (С) 20000 м    10/6 600 м средняя 
[Cu med, cong|Ac As]
+10.8 +8 83 +10  1011.9  1.5  741  286  +10.8        сухая 
06 23.05.17 040 (СВ) 20000 м  {ливн. осадки}  10/0 средняя 
[Cu med, cong|Ac As]
+12.7 +6.9 68 +13  1013.5  1.7  743  285           
09 23.05.17 070 (В) 20000 м    10/3 1000 м средняя 
[Cu med, cong|Ac As]
+14 +6 58 +15  1014.8  1.3  744  284           
12 23.05.17 060 (СВ) 20000 м    8/3 1000 м средняя, верхняя 
[Cu med, cong|Ac trans|Ci fib]
+17.5 +4.9 43 +18  1013.9  -0.6  743  281           
15 23.05.17 060 (СВ) 20000 м    4/0 средняя 
[Ac trans]
+17.4 +4.6 43 +18  1014.1  0.3  743  281    +18.1       
18 23.05.17 080 (В) 10 км    3/0 средняя 
[Ac trans]
+13.9 +2.3 45 +14  1016.4  745  285           
21 23.05.17 060 (СВ) 10 км    3/0 средняя 
[Ac trans]
+10.9 +2.1 55 +10  1017.1  0.4  745  288           
00 24.05.17 070 (В) 10 км    10/0 средняя 
[Ac As]
+10.1 +1.7 56 +9  1017.7  0.5  746  289           
03 24.05.17 070 (В) 20000 м    10/0 средняя 
[Ac As]
+10.6 +1.8 54 +10  1018.5  0.9  746  289  +9.3        сухая 
06 24.05.17 060 (СВ) 20000 м    9/0 средняя 
[Ac trans]
+14.4 +2.2 44 +14  1018.3  0.1  746  285           
09 24.05.17 070 (В) 20000 м    10/4 300 м кучево-дожд., средняя 
[Cb cap|Ac und]
+15.7 +1.2 37 +15  1018.3  746  284           
12 24.05.17 070 (В) 20000 м  слаб. ливневой дождь  10/5 300 м кучево-дожд., средняя 
[Cb cap|Ac und]
+15.7 +1.2 37 +15  1018.3  -0.1  746  284           
15 24.05.17 310 (СЗ) 10 км  слаб. ливневой дождь  10/5 600 м кучево-дожд., средняя 
[Cb cap|Ac und]
+11.9 +7.4 74 +11  1018.8  0.2  746  287    +15.7       
18 24.05.17 040 (СВ) 10 км  слаб. ливневой дождь  10/8 600 м кучево-дожд., средняя 
[Cb cap|Ac und]
+10.8 +6.4 74 +11  1020.9  748  289           
21 24.05.17 010 (С) 10 км  в посл. час ливневой дождь  10/8 600 м кучево-дожд., средняя 
[Cb cap|Ac und]
+10.5 +6.4 76 +11  1020.1  -0.9  747  289           
00 25.05.17 100 (В) 10 км  слаб. ливневой дождь  10/8 600 м кучево-дожд., средняя 
[Cb cap|Ac und]
+11.7 +3.5 57 +13  1019.9  0.1  747  288           
03 25.05.17 340 (С) 20000 м  {ливн. осадки}  9/6 600 м кучево-дожд., средняя 
[Cb cap|Ac trans]
+11.1 +7.4 78 +10  1019.8  0.1  747  288  +10.1      влажная 
06 25.05.17 320 (СЗ) 10 км  слаб. ливневой дождь  10/8 300 м кучево-дожд., средняя 
[Cb cap|Ac und]
+12.3 +7.1 71 +12  1020.2  0.4  747  287           
09 25.05.17 340 (С) 20000 м    9/0 средняя 
[Ac cuf]
+16.3 +9.7 65 +17  1018.8  -1  747  282           
12 25.05.17 300 (СЗ) 20000 м    10/0 средняя 
[Ac und]
+18.5 +4.8 40 +20  1017.8  -0.8  746  281           
15 25.05.17 250 (З) 20000 м  {ливн. осадки}  10/5 600 м кучево-дожд., средняя 
[Cb cap|Ac und]
+16 +9.2 64 +17  1018.2  0.1  746  282    +18.6  0.5     
18 25.05.17 260 (З) 10 км  {ливн. осадки}  9/0 кучево-дожд., средняя 
[Cb cap|Ac cuf]
+13.2 +8 71 +13  1018.4  746  285           
Время (UTC), дата Ветер
(°,м/с) 
Видим.   Явления Облачность Т
(°С)
Тd
(°С)
f(%) Тe
(°С)
Pmin
(гПа)
dP
(гПа)
Po
(мм)
O2
(г/м3)
Тmin Tmax R s Состояние
почвы

Для получения пояснительной информации подведите курсор к названию столбца.

ПОГОДА в Элисте - архив

Всё, что Вы хотите узнать о погоде в Элисте - удобно и подробно!

Выберите нужную дату (начиная с 1 января 2015* года) и нажмите кнопку "Найти".
Будут отображены архивные сводки погоды по пункту Элиста, начиная с указанной даты.


Отображать данные в формате CSV (для использования в таблицах Excel)


Внимание! Наш архив погоды предназначен исключительно для личного некоммерческого использования в познавательных целях. Если Вам необходимы официальные справки о состоянии погоды (для производственных, юридических, коммерческих и т.п. целей), обращайтесь в органы Росгидромета.

*Примечание: данная дата относится к архиву по метеостанциям СССР (Россия, СНГ, Балтия).
Архив по метеостанциям Зарубежной Европы и Азии (кроме Китая) хранится 10 дней, по другим регионам земного шара (Китай, Африка, Америка, Австралия, Океания) - 1 день.

Элиста - район местоположения метеостанции


Название, широта, долгота, высота метеостанции:
Элиста 46.4°ш. 44.3°д. 155 м над ур. моря [Российская Федерация]

Дополнительная информация

В oтличие oт бoльшинства пoгoдных сайтoв мы публикуем пoдрoбную метеoинфoрмацию в детальнoм прoфессиoнальнoм фoрмате.

Характеристики температуры и влажнoсти вoздуха измеряются на высoте 2 м в тени вдали oт зданий и деревьев.
Скoрoсть ветра измеряется на высoте 10 м (на урoвне рoста челoвека скoрoсть ветра ниже в 1.5-2 раза). Если метеoстанция нахoдится в гoрoде или в лесу, тo скoрoсть ветра занижена на 2-4 м/с пo сравнению с oткрытым местoм. Скoрoсть ветра над акватoриями крупных рек и oзёр, а также на вершинах хoлмoв на 2-5 м/с выше, чем в oбычных услoвиях.
Атмoсфернoе давление в разных тoчках местнoсти мoжет значительнo oтличаться oт давления на метеoстанции, в зависимoсти oт услoвий рельефа (при пoдъёме на 10 м давление пoнижается примернo на 1 мм рт.ст.).